Starlink 3291

operational
NORAD ID: 50175 Int'l Des: 2021-125 Owner: SPXS Country: US Constellation: starlink
LEOCIRCULAR

About Starlink 3291

Description loading...

Live Position

Loading 3D Globe...

Upcoming Passes

Altitude History

Altitude vs Time

uPlot chart will show altitude changes over time

Two-Line Element Set

1 50175U 21125V 25259.16381617 .00000228 00000-0 32432-4 0 9995
2 50175 53.2122 312.5977 0001416 88.1509 271.9645 15.08839012210253
Epoch: Sep 16, 2025 • Age: 10 hours

Current Status

Altitude 540.4 km
Velocity 7.59 km/s
Sub-Earth Point 1.71°N, 114.14°E
Launch Date Dec 18, 2021
Age 3.7 years
Type internet

Technical Details

Classification Payload
Mass 290.00 kg
Dry Mass 270.00 kg
Total Mass 290.00 kg
Length 0.20 m
Diameter 2.80 m
Span 9.00 m
Shape Box + pan
Manufacturer SPXS
Bus Type Starlink
Phase Status In Orbit
Owner/State SPXS/US

Large Constellations

Loading constellations...